Location: Oberwangen
(47.4286°N, 8.9679°E)
Time: 12:54:25
(UTC+00:00)

Cosmos 1953 Rocket - Visible Passes

Search period start: 23 October 2021 00:00
Search period end: 02 November 2021 00:00
Orbit: 605 x 633 km, 82.5° (Epoch: 22 October)

Date Brightness Start Highest point End Pass type
(mag) Time Alt. Az. Time Alt. Az. Time Alt. Az.
23 Oct 5.0 18:05:23 10° NNE 18:07:40 22° NE 18:07:40 22° NE visible
23 Oct 5.9 19:43:06 10° NNW 19:44:51 20° NW 19:44:51 20° NW visible
24 Oct 4.5 18:22:30 10° N 18:25:24 34° NNE 18:25:24 34° NNE visible
24 Oct 6.4 20:01:10 10° NW 20:02:36 16° NW 20:02:36 16° NW visible
25 Oct 5.6 17:04:58 10° NE 17:05:42 10° ENE 17:06:04 10° ENE visible
25 Oct 4.1 18:39:51 10° N 18:43:15 51° N 18:43:15 51° N visible
25 Oct 6.8 20:20:13 10° WNW 20:20:27 10° WNW 20:20:27 10° WNW visible
26 Oct 5.0 17:20:31 10° NNE 17:23:31 17° ENE 17:24:01 17° ENE visible
26 Oct 4.3 18:57:23 10° NNW 19:01:13 51° WNW 19:01:13 51° WNW visible
27 Oct 4.4 17:37:20 10° N 17:41:14 28° ENE 17:42:08 26° E visible
27 Oct 5.3 19:15:08 10° NNW 19:19:06 31° W 19:19:21 31° W visible
28 Oct 3.7 17:54:28 10° N 17:58:50 49° ENE 18:00:35 31° SE visible
28 Oct 6.2 19:33:15 10° NW 19:36:19 18° W 19:37:49 16° WSW visible
29 Oct 3.5 18:11:50 10° N 18:16:21 87° E 18:19:35 18° S visible
29 Oct 6.8 19:52:42 10° WNW 19:53:27 10° W 19:54:11 10° W visible
30 Oct 5.0 16:52:25 10° NNE 16:55:32 18° ENE 16:58:36 10° ESE visible
30 Oct 4.3 18:29:24 10° NNW 18:33:45 52° W 18:38:03 10° S visible
31 Oct 4.4 17:09:16 10° N 17:13:14 30° ENE 17:17:08 10° SE visible
31 Oct 5.5 18:47:10 10° NNW 18:51:03 29° W 18:54:53 10° SSW visible
01 Nov 3.7 17:26:26 10° N 17:30:49 51° ENE 17:35:09 10° SSE visible
01 Nov 6.4 19:05:21 10° NW 19:08:17 17° W 19:11:09 10° SW visible
